[[{"header":{"parameterUnit":"m.s-1","parameterCategory":1,"la1":30.2991,"la2":30.254,"lo1":-89.0895,"lo2":-89.0444,"dy":0.0017,"dx":0.0017,"nx":28,"ny":28,"refTime":"2024-05-26T09:00:00:Z","depth":0,"parameterNumber":2,"parameterNumberName":"U-component_of_WINDS"},"data":[0,0,0,0,0,0,0,0,0,0,0,0,0,0,0,0,0,0,0,0,0,0,0,0,0,0,0,0,0,0,0,0,0,0,0,0,0,0,0,0,0,0,0,0,0,0,0,0,0,0,0,0,0,0,0,0,0,0,-0.2025,-0.2026,0,-0.208,-0.2081,-0.2081,-0.2097,-0.2097,-0.2096,-0.2096,-0.2152,-0.2153,-0.2155,0,0,0,0,0,0,0,0,0,0,0,0,0,-0.1934,-0.1935,-0.2025,-0.2026,-0.2026,-0.208,-0.2081,-0.2081,-0.2097,-0.2097,-0.2096,-0.2096,-0.2151,-0.2153,-0.2155,0,0,0,0,0,0,0,0,0,0,0,0,0,-0.198,-0.1936,-0.2025,-0.2041,-0.2043,-0.208,-0.2081,-0.2082,-0.2097,-0.2097,-0.2096,-0.2096,-0.215,-0.2153,-0.2155,-0.218,0,0,-0.2163,-0.2165,0,0,0,0,0,0,0,0,-0.1977,-0.1983,-0.2038,-0.204,-0.2042,-0.2081,-0.2069,-0.2115,-0.2097,-0.2077,-0.2096,-0.2096,-0.2129,-0.2133,-0.2144,-0.2183,-0.2185,-0.2164,-0.2165,-0.2166,-0.2167,0,0,0,0,0,0,0,-0.1974,-0.1981,-0.2047,-0.2039,-0.2041,-0.2045,-0.2051,-0.2078,-0.2104,-0.2078,-0.208,-0.2086,-0.213,-0.2142,-0.2146,-0.2186,-0.2164,-0.2166,-0.2168,-0.2169,-0.2249,-0.225,0,0,0,0,0,0,-0.1968,-0.1978,-0.2045,-0.2048,-0.2008,-0.2047,-0.2054,-0.2069,-0.2104,-0.2109,-0.2086,-0.2086,-0.2137,-0.2142,-0.2148,-0.218,-0.2166,-0.2169,-0.217,-0.2249,-0.2249,-0.225,0,0,0,0,0,0,-0.1966,-0.1974,-0.2043,-0.2014,-0.2023,-0.2049,-0.2066,-0.207,-0.2082,-0.211,-0.2115,-0.2094,-0.2137,-0.2144,-0.2172,-0.2182,-0.217,-0.2172,-0.2248,-0.2249,-0.225,-0.2244,0,0,0,0,0,0,-0.1963,-0.1973,-0.1983,-0.2014,-0.2024,-0.2067,-0.2067,-0.2072,-0.2087,-0.2088,-0.2118,-0.2123,-0.2137,-0.2168,-0.2175,-0.2185,-0.2174,-0.2247,-0.2248,-0.2249,-0.2244,-0.2245,-0.2246,0,0,0,0,0,-0.196,-0.1979,-0.1983,-0.1991,-0.2037,-0.2067,-0.2073,-0.209,-0.2088,-0.2098,-0.2116,-0.2122,-0.218,-0.2171,-0.2179,-0.219,-0.2247,-0.2248,-0.2249,-0.2243,-0.2245,-0.2246,0,0,0,0,0,0,-0.1948,-0.1983,-0.1988,-0.2018,-0.204,-0.207,-0.2084,-0.2091,-0.2113,-0.2113,-0.2132,-0.2139,-0.2167,-0.2181,-0.2171,-0.2216,-0.2213,-0.2216,-0.2206,-0.2208,-0.2209,-0.2205,-0.2177,0,0,0,0,0,-0.1949,-0.1971,-0.2,-0.2023,-0.2034,-0.2057,-0.2071,-0.2082,-0.2105,-0.2114,-0.2134,-0.2156,-0.2179,-0.2194,-0.2217,-0.2245,-0.2253,-0.2257,-0.2258,-0.2259,-0.2261,-0.2278,-0.2281,-0.2254,-0.2254,-0.2254,0,0,-0.1951,-0.1973,-0.1986,-0.2022,-0.204,-0.2062,-0.2064,-0.2088,-0.2105,-0.2117,-0.2146,-0.2161,-0.2187,-0.2216,-0.223,-0.2229,-0.227,-0.226,-0.2261,-0.2263,-0.228,-0.2283,-0.2285,-0.2255,-0.2255,-0.2255,0,0,-0.1967,-0.1985,-0.2007,-0.2025,-0.2052,-0.2067,-0.2073,-0.2102,-0.2113,-0.2142,-0.2152,-0.2172,-0.2211,-0.223,-0.2244,-0.2266,-0.2273,-0.2273,-0.2279,-0.2296,-0.2298,-0.23,-0.2309,-0.2312,-0.2275,-0.2275,-0.2275,0,-0.1966,-0.2,-0.2017,-0.204,-0.2056,-0.2069,-0.2091,-0.2108,-0.2141,-0.2152,-0.215,-0.22,-0.2219,-0.2253,-0.2258,-0.2269,-0.2276,-0.227,-0.2296,-0.2298,-0.23,-0.2309,-0.2312,-0.2275,-0.2275,-0.2275,-0.2275,0,-0.1998,-0.2022,-0.2036,-0.2069,-0.2086,-0.2108,-0.2129,-0.2144,-0.2153,-0.2168,-0.2198,-0.222,-0.2248,-0.2257,-0.2265,-0.2292,-0.2291,-0.2292,-0.229,-0.2303,-0.2311,-0.2315,-0.2275,-0.2275,-0.2275,-0.2275,0,0,-0.2009,-0.205,-0.2055,-0.2071,-0.2102,-0.212,-0.2143,-0.2171,-0.2184,-0.2207,-0.2227,-0.226,-0.2262,-0.2278,-0.2289,-0.2303,-0.2321,-0.2303,-0.2304,-0.2307,-0.2352,-0.2352,-0.2356,-0.2325,-0.2326,-0.2326,-0.2351,0,-0.2029,-0.2072,-0.2088,-0.2122,-0.2145,-0.2157,-0.2177,-0.2198,-0.2213,-0.2234,-0.225,-0.2274,-0.2274,-0.2284,-0.2298,-0.2316,-0.2331,-0.2314,-0.2345,-0.2346,-0.2339,-0.236,-0.236,-0.2382,-0.2354,-0.2355,-0.2355,0,-0.2059,-0.2082,-0.212,-0.2149,-0.2159,-0.2177,-0.2204,-0.2223,-0.2248,-0.2257,-0.2275,-0.2286,-0.231,-0.2305,-0.234,-0.2328,-0.2342,-0.2352,-0.2353,-0.2358,-0.2352,-0.2366,-0.2389,-0.2393,-0.236,-0.236,-0.236,0,-0.2065,-0.2105,-0.2133,-0.2145,-0.2179,-0.2192,-0.2207,-0.2231,-0.2246,-0.2269,-0.228,-0.2305,-0.232,-0.2339,-0.2356,-0.235,-0.2389,-0.2385,-0.2399,-0.2398,-0.2407,-0.2407,-0.2434,-0.2413,-0.2413,-0.2413,-0.2413,0,-0.2087,-0.2109,-0.2136,-0.2153,-0.2179,-0.2197,-0.2221,-0.2237,-0.2258,-0.2279,-0.229,-0.2309,-0.2329,-0.235,-0.2363,-0.2391,-0.2397,-0.2405,-0.2409,-0.2405,-0.2404,-0.2415,-0.2415,-0.2414,-0.2414,-0.2414,-0.2414,0,-0.2098,-0.2117,-0.2148,-0.2178,-0.2185,-0.2203,-0.2229,-0.2246,-0.2261,-0.2287,-0.2294,-0.2317,-0.2343,-0.2361,-0.2394,-0.2403,-0.2433,-0.2435,-0.2425,-0.2427,-0.2439,-0.2439,-0.2475,-0.2482,-0.2456,-0.2456,-0.2456,0,-0.2111,-0.2129,-0.2161,-0.2176,-0.2191,-0.2214,-0.223,-0.2248,-0.2264,-0.2293,-0.2307,-0.2334,-0.2357,-0.2397,-0.2417,-0.2443,-0.2447,-0.2458,-0.2451,-0.2447,-0.2448,-0.2448,-0.245,-0.2459,-0.246,-0.246,-0.246,0,-0.2134,-0.2142,-0.2166,-0.2192,-0.2211,-0.2233,-0.2255,-0.2266,-0.2287,-0.2305,-0.2332,-0.235,-0.2384,-0.241,-0.2438,-0.2453,-0.246,-0.2462,-0.2466,-0.2464,-0.2457,-0.2462,-0.2429,-0.2461,-0.2461,-0.2461,-0.2461,-0.2461,-0.2148,-0.2165,-0.219,-0.2215,-0.2233,-0.2254,-0.2272,-0.2289,-0.2311,-0.2341,-0.235,-0.2378,-0.2402,-0.244,-0.2455,-0.2477,-0.2476,-0.2483,-0.2485,-0.2486,-0.2487,-0.2453,-0.2482,-0.2482,-0.2482,-0.2482,-0.2482,0,-0.2172,-0.2189,-0.2212,-0.2243,-0.2263,-0.2267,-0.2292,-0.2308,-0.2333,-0.2355,-0.2377,-0.2408,-0.2434,-0.2456,-0.2482,-0.2496,-0.25,-0.2503,-0.2503,-0.2506,-0.2485,-0.2479,-0.2499,-0.2499,-0.2499,-0.2499,-0.2499,-0.2499,-0.2187,-0.2216,-0.2228,-0.2266,-0.2282,-0.231,-0.2324,-0.2343,-0.236,-0.2395,-0.2416,-0.243,-0.2452,-0.2481,-0.2505,-0.251,-0.252,-0.2522,-0.2529,-0.2509,-0.2507,-0.2506,-0.25,-0.2524,-0.2524,-0.2548,-0.2548,-0.2548]},{"header":{"parameterUnit":"m.s-1","parameterCategory":1,"la1":30.2991,"la2":30.254,"lo1":-89.0895,"lo2":-89.0444,"dy":0.0017,"dx":0.0017,"nx":28,"ny":28,"refTime":"2024-05-26T09:00:00:Z","depth":0,"parameterNumber":3,"parameterNumberName":"V-component_of_WINDS"},"data":[0,0,0,0,0,0,0,0,0,0,0,0,0,0,0,0,0,0,0,0,0,0,0,0,0,0,0,0,0,0,0,0,0,0,0,0,0,0,0,0,0,0,0,0,0,0,0,0,0,0,0,0,0,0,0,0,0,0,7.8488,7.8489,0,7.8604,7.8605,7.8606,7.857,7.8567,7.8565,7.8562,7.8676,7.8681,7.8686,0,0,0,0,0,0,0,0,0,0,0,0,0,7.8228,7.8233,7.8487,7.8489,7.849,7.8603,7.8605,7.8607,7.857,7.8567,7.8564,7.8561,7.8674,7.868,7.8687,0,0,0,0,0,0,0,0,0,0,0,0,0,7.8342,7.8235,7.8487,7.8486,7.8487,7.8603,7.8605,7.8607,7.8571,7.8567,7.8563,7.856,7.8672,7.868,7.8687,7.881,0,0,7.8712,7.8715,0,0,0,0,0,0,0,0,7.8336,7.8352,7.8485,7.8486,7.8488,7.8569,7.8555,7.8675,7.8572,7.8539,7.8562,7.8558,7.8643,7.8653,7.8682,7.8815,7.882,7.8712,7.8717,7.8721,7.8723,0,0,0,0,0,0,0,7.8328,7.8347,7.8533,7.8487,7.8488,7.8478,7.849,7.8578,7.861,7.8541,7.8539,7.8553,7.8643,7.8675,7.8685,7.8822,7.8712,7.8719,7.8724,7.8727,7.906,7.9064,0,0,0,0,0,0,7.832,7.834,7.8529,7.8537,7.8401,7.8485,7.8499,7.8546,7.8609,7.8615,7.8556,7.8551,7.8663,7.8676,7.8689,7.8836,7.8721,7.8728,7.8733,7.9056,7.9061,7.9066,0,0,0,0,0,0,7.8315,7.8337,7.8525,7.8438,7.8461,7.8494,7.8547,7.855,7.8583,7.862,7.8625,7.8584,7.8661,7.8677,7.878,7.8839,7.8732,7.8739,7.9052,7.9058,7.9063,7.9131,0,0,0,0,0,0,7.8307,7.8335,7.8384,7.8439,7.8466,7.8617,7.8551,7.8555,7.8597,7.8591,7.8647,7.8653,7.8659,7.8769,7.8788,7.8848,7.8745,7.9046,7.9054,7.9062,7.9124,7.9139,7.9152,0,0,0,0,0,7.8298,7.8397,7.8386,7.8409,7.8527,7.862,7.8635,7.8642,7.8602,7.865,7.8674,7.8651,7.883,7.878,7.8801,7.8864,7.9043,7.9052,7.9061,7.9118,7.9136,7.9152,0,0,0,0,0,0,7.8346,7.8404,7.8393,7.8514,7.8562,7.8614,7.8674,7.8661,7.8721,7.8713,7.8717,7.8729,7.8835,7.886,7.8803,7.8986,7.893,7.8944,7.8966,7.8984,7.8997,7.8988,7.8752,0,0,0,0,0,7.8371,7.8443,7.849,7.8591,7.8617,7.8642,7.8682,7.8683,7.8733,7.8753,7.8785,7.8832,7.8899,7.8943,7.9006,7.9128,7.9138,7.9182,7.9196,7.9207,7.9218,7.9283,7.9303,7.9096,7.9096,7.9096,0,0,7.8422,7.8463,7.8508,7.8602,7.864,7.8713,7.8659,7.8738,7.8792,7.8764,7.8864,7.8889,7.8942,7.9055,7.9106,7.9079,7.9278,7.9219,7.9227,7.9233,7.9295,7.9314,7.9332,7.9102,7.9101,7.91,0,0,7.8553,7.8592,7.8681,7.872,7.8779,7.8795,7.8816,7.887,7.8886,7.8986,7.8967,7.903,7.9145,7.9184,7.9218,7.9364,7.9345,7.9385,7.9457,7.952,7.9537,7.9551,7.9602,7.962,7.9396,7.9397,7.9397,0,7.8609,7.872,7.8727,7.8809,7.885,7.883,7.8919,7.8956,7.9032,7.906,7.9029,7.9174,7.9208,7.9329,7.9365,7.9394,7.9417,7.9378,7.9534,7.9549,7.9562,7.9611,7.963,7.9401,7.94,7.94,7.94,0,7.8785,7.8862,7.8926,7.9002,7.905,7.9135,7.9154,7.9201,7.9198,7.9217,7.9319,7.936,7.9431,7.946,7.9457,7.958,7.9562,7.9533,7.9476,7.9586,7.9632,7.965,7.9407,7.9406,7.9404,7.9403,0,0,7.8948,7.9028,7.9051,7.9085,7.9148,7.9207,7.929,7.9362,7.9402,7.9455,7.9523,7.9622,7.9595,7.9635,7.9636,7.9692,7.9803,7.9656,7.9657,7.9681,7.994,7.9961,7.9982,7.9791,7.9795,7.9798,7.9935,0,7.9083,7.9232,7.9241,7.9374,7.9445,7.9427,7.9499,7.9545,7.9565,7.9626,7.9647,7.9716,7.9677,7.97,7.9755,7.9778,7.9855,7.9769,7.9853,7.9856,7.9839,8.0006,8.0028,8.0156,7.9953,7.9956,7.9958,0,7.9261,7.9321,7.9462,7.9515,7.9545,7.961,7.9676,7.9735,7.9786,7.9796,7.9841,7.9835,7.9918,7.986,7.9974,7.9915,7.995,7.9967,7.9972,7.9979,7.9913,8.0016,8.0197,8.0216,7.9987,7.9984,7.9982,0,7.9365,7.9481,7.958,7.9609,7.9674,7.972,7.9749,7.9796,7.9838,7.9896,7.9923,7.9988,8.0024,8.0074,8.0084,8.0041,8.0198,8.0141,8.0207,8.0207,8.024,8.0237,8.0427,8.0265,8.0264,8.0264,8.0264,0,7.9514,7.9601,7.9627,7.9688,7.9784,7.9793,7.9887,7.9912,7.9955,8.0019,8.0007,8.0067,8.0078,8.014,8.0149,8.0241,8.0258,8.0267,8.0268,8.0267,8.0266,8.0289,8.028,8.0269,8.0268,8.0267,8.0266,0,7.9646,7.9667,7.9774,7.9827,7.9842,7.991,7.9955,8.0012,8.0031,8.0112,8.0131,8.016,8.0232,8.0248,8.0334,8.0339,8.0449,8.0441,8.0432,8.0431,8.0496,8.0489,8.0706,8.0735,8.0555,8.0556,8.0558,0,7.9739,7.9805,7.9866,7.9909,7.994,8.001,8.0053,8.0064,8.0109,8.0172,8.0222,8.0293,8.0351,8.0467,8.0494,8.0559,8.0553,8.0624,8.0562,8.0559,8.0552,8.0548,8.0554,8.0636,8.0638,8.0639,8.064,0,7.9902,7.991,7.9974,8.0042,8.0094,8.0148,8.0199,8.0234,8.0252,8.0303,8.0378,8.0423,8.0511,8.0581,8.0646,8.0674,8.066,8.066,8.0679,8.0678,8.0669,8.0674,8.0463,8.0655,8.0653,8.0652,8.0651,8.0651,8.0017,8.0075,8.0126,8.0198,8.0238,8.0286,8.0342,8.0368,8.0431,8.0505,8.0507,8.0588,8.0636,8.0723,8.0755,8.0817,8.0794,8.0821,8.0828,8.0834,8.084,8.0661,8.0829,8.0828,8.0828,8.0828,8.0827,0,8.0178,8.0211,8.0277,8.0349,8.0405,8.0389,8.0444,8.0492,8.0564,8.0611,8.0668,8.0753,8.0822,8.0855,8.0922,8.0965,8.096,8.0982,8.0978,8.0985,8.0857,8.0833,8.0985,8.0985,8.0985,8.0985,8.0985,8.0985,8.0269,8.0366,8.0379,8.0495,8.0527,8.0607,8.064,8.0684,8.0721,8.0818,8.0875,8.0897,8.0938,8.1008,8.1069,8.1077,8.1101,8.1126,8.1131,8.101,8.0994,8.0979,8.0957,8.1132,8.1132,8.1253,8.1255,8.1255]}]]